Temperature
1 0 0 0 -0 -0 -0 -0 -0 -0 -0 -0 -0 0 0 0 0 0 0 0 0 1 1 1 1 1 1 1 1 0 0 0 0 1 1 1 1 1 1 1 1 1 2
-0 -0 -0 -1 -1 -1 -1 -1 -1 -1 -1 -1 -1 -1 -1 -0 -0 -0 -0 -0 -0 -0 0 -0 0 -0 -0 -0 -0 -0 -0 -0 -0 -0 0 1 1 1 1 1 1 1 1
-1 -1 -1 -1 -1 -1 -1 -2 -2 -2 -2 -2 -2 -1 -1 -1 -1 -1 -1 -1 -1 -1 -1 -1 -1 -1 -1 -1 -1 -1 -1 -1 -1 -1 -1 -0 -0 -0 -0 0 0 0 0
-1 -1 -1 -1 -2 -2 -2 -2 -2 -2 -2 -2 -2 -2 -2 -2 -2 -2 -2 -1 -1 -1 -1 -1 -1 -2 -2 -1 -1 -1 -2 -2 -2 -2 -1 -1 -1 -1 -1 -1 -0 -0 -0
-2 -2 -2 -2 -2 -2 -3 -3 -3 -3 -3 -3 -3 -3 -3 -3 -3 -2 -2 -2 -2 -2 -2 -2 -2 -2 -2 -2 -2 -2 -2 -2 -2 -2 -2 -2 -2 -2 -2 -2 -2 -1 -1
-2 -3 -3 -3 -3 -3 -3 -3 -3 -3 -3 -3 -4 -4 -3 -3 -3 -3 -3 -3 -3 -3 -3 -3 -3 -3 -3 -3 -3 -3 -3 -3 -3 -3 -3 -3 -2 -2 -3 -3 -3 -3 -2
-3 -3 -3 -4 -4 -3 -4 -4 -4 -4 -4 -4 -4 -4 -4 -4 -4 -4 -4 -4 -4 -4 -4 -3 -4 -4 -4 -4 -4 -4 -4 -4 -4 -4 -4 -3 -3 -3 -3 -3 -3 -4 -3
-4 -4 -4 -4 -4 -4 -4 -4 -5 -5 -5 -5 -5 -5 -5 -4 -4 -4 -5 -5 -4 -4 -4 -4 -5 -5 -5 -5 -5 -5 -4 -4 -4 -4 -4 -4 -4 -4 -4 -4 -4 -4 -4
-5 -5 -5 -5 -5 -5 -5 -5 -5 -5 -5 -5 -5 -5 -5 -5 -5 -5 -5 -5 -5 -5 -5 -5 -5 -5 -6 -6 -6 -6 -5 -5 -5 -5 -5 -5 -5 -5 -5 -5 -5 -5 -5
-5 -5 -5 -6 -6 -6 -6 -6 -6 -6 -6 -6 -6 -6 -6 -6 -6 -6 -6 -6 -6 -6 -6 -6 -6 -6 -6 -6 -6 -6 -6 -6 -5 -5 -5 -5 -5 -5 -5 -5 -5 -6 -6
-6 -6 -6 -6 -6 -6 -6 -7 -7 -7 -7 -7 -7 -7 -7 -7 -7 -7 -7 -7 -7 -7 -7 -7 -7 -7 -7 -7 -7 -7 -7 -7 -6 -6 -6 -6 -6 -6 -6 -6 -6 -6 -6
-7 -6 -6 -7 -7 -7 -7 -7 -7 -7 -8 -8 -8 -8 -8 -8 -8 -8 -7 -7 -8 -8 -8 -8 -8 -8 -8 -8 -8 -8 -7 -7 -7 -7 -7 -7 -7 -6 -6 -6 -6 -6 -6
-7 -7 -7 -7 -7 -8 -8 -8 -8 -8 -8 -8 -8 -9 -9 -9 -9 -9 -8 -8 -8 -8 -8 -8 -8 -8 -8 -8 -8 -8 -8 -8 -8 -8 -8 -7 -7 -7 -7 -7 -7 -7 -7
-8 -8 -8 -8 -8 -8 -8 -9 -9 -9 -9 -9 -9 -9 -10 -10 -9 -9 -9 -9 -9 -9 -9 -9 -9 -9 -9 -9 -9 -9 -9 -9 -8 -8 -8 -8 -8 -8 -8 -8 -8 -8 -7
-8 -8 -9 -9 -9 -9 -9 -9 -9 -9 -10 -10 -10 -10 -10 -10 -10 -10 -10 -10 -10 -10 -10 -10 -10 -10 -9 -9 -9 -9 -9 -9 -9 -9 -9 -9 -9 -9 -8 -8 -8 -8 -8
-9 -9 -9 -9 -10 -10 -10 -10 -10 -10 -10 -10 -10 -10 -10 -10 -10 -10 -10 -10 -10 -10 -10 -10 -10 -10 -10 -10 -10 -10 -10 -10 -10 -10 -9 -9 -9 -9 -9 -9 -9 -9 -9
-10 -10 -10 -10 -10 -10 -10 -10 -10 -10 -10 -10 -10 -11 -11 -11 -11 -11 -11 -11 -11 -11 -11 -11 -11 -11 -11 -11 -10 -10 -10 -10 -10 -10 -10 -10 -10 -10 -10 -9 -9 -9 -9
-10 -10 -10 -10 -10 -10 -11 -11 -11 -11 -11 -11 -11 -11 -11 -11 -11 -11 -11 -11 -11 -11 -11 -11 -11 -11 -11 -11 -11 -11 -11 -11 -11 -11 -11 -10 -10 -10 -10 -10 -10 -10 -10
-11 -11 -11 -11 -11 -11 -11 -11 -11 -11 -11 -11 -11 -11 -11 -11 -11 -11 -11 -12 -12 -12 -12 -12 -12 -12 -12 -12 -12 -11 -11 -11 -11 -11 -11 -11 -11 -11 -11 -11 -11 -11 -11
-11 -11 -11 -11 -11 -11 -11 -11 -12 -12 -12 -12 -12 -12 -12 -12 -12 -12 -12 -12 -12 -12 -12 -12 -12 -12 -12 -12 -12 -12 -12 -12 -12 -12 -12 -11 -11 -11 -11 -11 -11 -11 -11
-11 -11 -12 -12 -12 -12 -12 -12 -12 -12 -12 -12 -12 -12 -12 -12 -12 -12 -12 -12 -12 -13 -13 -12 -12 -12 -12 -12 -12 -12 -12 -12 -12 -12 -12 -12 -12 -12 -12 -12 -12 -12 -12
-12 -12 -12 -12 -12 -12 -12 -12 -12 -12 -12 -12 -12 -12 -13 -13 -13 -13 -13 -13 -13 -13 -13 -13 -13 -13 -13 -13 -13 -13 -13 -12 -12 -12 -12 -12 -12 -12 -12 -12 -12 -12 -12
-12 -12 -12 -13 -13 -13 -13 -13 -13 -13 -13 -13 -13 -13 -13 -13 -13 -13 -13 -13 -13 -13 -13 -13 -13 -13 -13 -13 -13 -13 -13 -13 -13 -13 -13 -13 -12 -12 -12 -13 -13 -12 -12
-13 -13 -13 -13 -13 -13 -13 -13 -13 -13 -13 -13 -13 -13 -13 -13 -13 -13 -13 -13 -13 -13 -13 -13 -13 -13 -13 -13 -13 -13 -13 -13 -13 -13 -13 -13 -13 -13 -13 -13 -13 -13 -13
-13 -13 -13 -13 -13 -13 -13 -13 -13 -13 -14 -14 -14 -14 -14 -14 -14 -14 -14 -14 -14 -14 -14 -14 -14 -14 -14 -13 -13 -13 -13 -13 -13 -13 -13 -13 -13 -13 -13 -13 -13 -13 -13
-14 -14 -14 -14 -14 -14 -14 -14 -14 -14 -14 -14 -14 -14 -14 -14 -14 -14 -14 -14 -14 -14 -14 -14 -14 -14 -14 -14 -14 -14 -14 -14 -14 -13 -14 -14 -13 -13 -13 -13 -13 -13 -13
Wind_Speed
2 3 3 3 3 3 4 4 4 3 4 5 5 5 5 5 4 4 5 5 5 5 4 5 5 4 4 4 4 4 5 5 7 5 3 3 4 4 6 7 8 9 9
2 2 2 2 2 3 4 4 3 3 4 4 5 5 5 5 5 5 5 5 6 6 6 6 6 5 5 4 4 5 5 5 6 7 4 3 4 5 5 5 7 8 8
1 1 1 2 2 3 4 3 3 3 3 4 4 5 6 6 6 6 6 6 6 6 6 6 6 6 6 5 5 5 5 5 5 6 6 4 4 4 4 5 6 6 8
1 1 2 2 3 3 3 3 4 4 3 4 5 5 5 5 6 6 6 6 5 5 6 6 6 7 7 7 6 6 5 5 5 6 6 5 4 3 3 4 5 4 5
1 1 2 2 2 2 2 3 3 3 4 4 4 4 5 5 6 6 6 6 6 5 5 6 6 7 9 7 6 6 6 6 5 6 6 5 4 3 4 4 5 5 6
1 2 2 2 2 2 3 2 3 3 3 3 4 4 5 5 7 8 7 5 5 5 5 5 6 7 8 9 10 10 8 8 7 7 7 7 7 6 5 5 5 5 5
2 2 2 2 2 3 3 2 3 2 2 2 3 3 4 6 8 8 8 5 5 5 5 5 5 6 7 5 8 9 9 11 11 8 8 9 7 5 5 6 6 6 7
2 2 3 3 3 3 2 2 3 2 2 2 2 3 3 5 7 7 7 4 4 5 6 6 6 6 6 6 6 6 6 7 8 7 8 8 7 6 6 7 7 7 7
3 3 3 3 3 3 3 3 2 2 2 2 2 2 3 4 7 7 6 3 4 5 5 5 6 6 9 9 6 6 6 6 9 10 11 10 10 10 8 4 5 5 7
3 3 3 3 2 3 3 3 2 1 2 2 2 2 3 4 6 7 6 2 3 3 3 4 7 7 9 9 6 5 7 6 5 5 6 7 8 8 10 7 6 6 5
3 3 3 3 3 3 2 2 1 1 1 1 2 2 3 4 6 7 6 3 3 3 3 3 4 8 9 9 8 6 8 6 4 4 5 4 4 4 5 6 6 6 6
3 3 3 3 2 2 2 2 1 1 1 1 2 2 3 4 5 6 6 5 4 3 3 3 4 7 8 8 7 7 9 7 4 4 4 5 5 4 4 5 7 7 8
3 3 3 3 3 2 2 2 2 1 1 1 1 2 3 3 4 7 7 6 6 3 3 5 6 7 6 5 7 8 7 4 4 4 5 5 5 5 4 4 5 6 7
2 3 3 3 3 2 2 2 2 2 2 2 2 2 3 3 3 4 4 4 5 4 3 4 6 6 5 5 5 5 4 4 4 4 4 4 4 4 4 4 4 4 4
2 2 3 3 2 2 2 2 2 3 3 3 2 3 3 3 5 6 4 3 2 2 2 1 2 2 2 2 3 3 2 3 4 4 4 4 4 5 5 4 4 4 4
2 2 2 2 2 2 2 3 4 4 6 6 5 4 4 6 8 7 6 6 6 4 2 1 2 2 2 3 3 3 3 3 4 4 4 4 5 5 5 4 4 4 5
3 3 2 2 2 2 2 2 3 4 5 6 6 6 6 7 7 7 7 6 6 4 1 1 2 3 3 3 3 3 3 3 3 4 4 4 5 5 5 5 5 4 5
3 4 3 2 2 2 2 2 2 3 3 4 5 7 7 7 7 7 7 5 3 3 1 2 3 3 3 3 4 4 4 3 3 4 4 4 4 5 5 5 5 5 5
3 3 2 2 2 2 2 2 2 3 3 3 4 5 7 7 7 7 5 2 2 2 2 2 3 3 3 4 4 4 4 4 4 4 4 5 5 5 5 5 5 7 6
3 4 3 2 2 2 2 2 2 2 3 3 3 4 4 4 3 4 3 2 2 3 3 3 3 3 3 4 4 4 4 4 4 4 4 4 4 5 5 6 5 5 5
3 3 4 3 2 2 2 2 2 2 3 3 4 5 5 2 2 3 3 3 3 3 3 3 3 4 4 4 4 4 5 4 4 4 4 4 4 5 5 5 5 5 5
2 2 2 2 2 2 2 2 2 2 3 4 4 5 6 3 2 3 3 3 3 3 3 3 4 4 4 4 4 4 5 5 5 4 4 4 4 5 5 5 5 5 5
2 3 3 3 3 3 3 2 2 3 3 3 4 4 4 3 3 3 3 4 4 4 4 4 4 4 5 5 5 5 5 5 5 5 5 5 5 5 5 5 6 6 6
2 2 2 3 3 2 3 3 3 3 3 3 3 3 3 3 3 4 4 3 4 4 4 4 5 6 7 7 7 7 8 8 7 6 6 5 5 5 5 5 6 6 6
2 2 2 2 3 3 3 3 3 3 3 3 3 3 4 4 4 4 4 4 4 4 5 6 5 6 7 8 8 8 10 11 10 8 6 5 5 6 5 5 5 5 5
3 2 2 2 2 3 3 3 3 3 3 3 4 4 4 4 4 4 4 4 4 4 5 6 7 8 9 9 10 10 11 12 11 10 7 4 5 5 5 4 5 5 5
Wind_Direction
231 226 214 215 223 224 228 233 235 246 239 228 227 226 225 225 222 220 224 221 222 229 226 222 229 225 223 223 223 225 226 224 249 269 260 260 251 262 286 283 278 275 273
259 240 231 224 227 231 240 244 241 242 246 238 229 226 225 225 220 220 226 229 225 229 225 223 230 227 228 229 225 230 234 229 237 262 269 259 256 258 268 275 283 276 273
288 271 269 249 238 241 247 255 253 244 248 247 232 226 228 226 224 225 226 229 232 232 226 226 229 224 232 232 231 233 239 242 236 249 266 259 254 261 271 278 278 276 279
322 292 273 267 257 254 253 253 251 247 243 243 241 236 233 231 230 230 228 232 234 234 234 232 232 227 231 230 233 234 236 241 240 247 262 265 253 251 246 264 279 270 278
326 303 283 287 286 278 268 256 253 251 250 250 247 246 243 236 231 230 229 230 229 233 238 238 238 237 238 237 238 233 232 238 243 247 256 265 254 250 247 253 268 281 277
318 306 313 315 306 294 285 279 269 264 262 255 252 248 249 246 242 240 236 231 228 230 238 243 244 244 246 250 252 249 241 239 238 243 251 257 255 250 254 259 263 278 280
309 317 324 321 312 301 298 297 283 274 273 266 257 248 247 250 249 248 246 240 230 231 234 241 249 248 252 246 253 256 254 253 247 242 249 256 260 251 247 255 254 261 267
317 322 321 321 314 311 309 300 296 294 278 273 271 259 254 257 258 256 254 247 238 236 234 235 239 246 244 244 244 251 254 258 257 251 246 253 256 248 237 246 255 266 275
318 314 310 306 307 312 308 301 305 310 309 306 291 282 270 273 268 265 261 243 243 245 242 238 236 239 247 250 246 251 262 266 267 266 269 267 267 266 261 249 250 259 273
299 299 299 300 298 297 295 302 315 310 306 308 305 301 287 284 277 268 263 245 247 255 257 254 251 250 253 252 240 241 255 261 262 275 274 272 269 266 262 243 232 243 264
303 308 311 306 297 289 291 300 302 309 328 322 308 304 294 290 291 279 270 257 245 255 260 261 262 262 260 258 256 245 254 263 258 258 262 266 264 259 258 251 238 235 243
313 314 316 312 306 307 313 314 314 310 329 318 313 311 304 298 298 292 285 277 267 253 257 259 259 270 273 271 268 263 266 267 256 253 257 259 261 261 261 259 252 249 249
323 319 317 319 321 314 301 300 307 296 282 295 304 306 309 307 302 304 301 292 280 273 261 263 269 271 275 276 272 273 271 256 250 252 254 256 258 263 266 267 263 262 264
315 317 318 321 321 323 311 296 292 286 280 278 284 293 299 303 303 301 298 295 292 282 279 273 271 270 270 275 278 277 264 249 245 251 261 266 268 266 260 253 256 262 270
311 313 316 313 306 312 315 299 289 272 264 270 268 271 283 291 298 306 313 303 301 288 306 305 293 287 277 275 277 271 266 263 259 253 256 267 266 264 264 259 253 254 256
299 306 301 299 300 304 309 316 303 297 298 301 298 294 290 300 310 312 313 315 312 306 319 331 299 289 278 279 275 274 270 267 266 263 259 258 264 265 267 266 257 251 256
276 283 284 288 293 294 296 300 310 314 312 314 315 313 311 315 317 319 320 322 318 317 315 308 288 283 282 279 276 271 268 268 268 263 262 262 263 264 263 263 260 259 261
285 279 283 277 279 282 282 283 286 299 312 316 317 317 319 322 325 325 324 327 323 322 300 283 279 281 282 278 276 273 272 273 269 267 262 259 259 265 266 261 259 260 265
292 285 282 283 283 283 284 283 283 287 294 307 315 319 323 325 327 327 328 321 303 300 295 287 279 277 279 280 277 275 271 270 269 269 268 263 259 260 265 266 266 269 269
294 295 302 297 295 294 288 283 283 287 291 299 303 307 315 323 328 329 332 318 301 291 286 283 283 277 275 277 279 276 274 270 269 267 270 270 266 261 263 265 264 267 267
311 308 312 310 295 287 284 279 280 285 290 296 298 302 312 319 309 308 310 309 299 291 285 282 280 278 274 272 273 274 272 273 268 264 266 268 269 266 265 267 264 264 268
324 320 319 312 302 290 288 283 283 284 289 294 302 309 316 320 303 298 298 297 297 289 282 280 279 278 273 272 271 274 275 274 274 269 268 268 269 267 264 265 266 264 264
336 329 328 324 316 309 315 304 296 293 294 296 301 307 317 318 308 301 297 296 295 294 291 284 281 284 284 281 275 267 268 271 272 268 266 269 268 265 263 260 261 261 260
337 331 328 325 325 321 317 312 309 307 305 305 305 307 311 311 308 306 305 303 302 300 297 292 285 284 289 295 290 281 274 275 275 266 260 259 265 268 264 259 259 255 257
339 332 327 323 324 324 322 318 316 313 310 309 307 308 309 308 307 305 304 300 299 299 299 299 295 294 295 295 295 291 288 290 288 281 265 257 261 263 265 262 259 258 254
340 333 326 321 319 318 316 313 315 314 309 306 303 303 304 304 303 304 303 302 303 302 302 303 302 302 301 300 298 298 298 298 296 292 282 267 262 265 268 267 261 256 254
Height
1465 1466 1466 1467 1468 1469 1469 1470 1470 1471 1472 1473 1474 1475 1476 1477 1479 1481 1482 1483 1484 1484 1485 1486 1487 1489 1489 1490 1491 1492 1493 1493 1492 1491 1492 1493 1493 1493 1493 1494 1494 1494 1493
1462 1462 1462 1463 1464 1464 1465 1465 1466 1466 1467 1467 1468 1469 1470 1472 1473 1475 1476 1477 1478 1479 1480 1481 1482 1483 1483 1484 1485 1486 1486 1487 1487 1486 1486 1487 1487 1487 1487 1487 1487 1487 1487
1459 1459 1459 1459 1460 1460 1460 1460 1461 1461 1462 1462 1463 1463 1464 1466 1467 1468 1470 1471 1472 1473 1474 1474 1475 1476 1477 1478 1479 1479 1480 1481 1481 1480 1479 1480 1481 1481 1481 1480 1480 1480 1480
1455 1455 1455 1455 1455 1456 1456 1456 1456 1457 1457 1457 1457 1458 1458 1459 1461 1462 1464 1465 1466 1467 1468 1468 1469 1470 1470 1471 1472 1473 1474 1474 1475 1474 1474 1474 1474 1474 1474 1473 1473 1473 1473
1452 1452 1452 1452 1452 1451 1451 1451 1451 1451 1452 1452 1452 1452 1453 1454 1455 1456 1457 1458 1459 1460 1461 1462 1462 1463 1464 1465 1465 1466 1467 1467 1467 1468 1467 1467 1467 1467 1467 1467 1466 1466 1465
1449 1448 1448 1448 1448 1447 1447 1447 1446 1446 1446 1446 1446 1446 1447 1448 1449 1450 1452 1452 1453 1453 1454 1455 1456 1456 1457 1458 1459 1459 1460 1461 1460 1461 1461 1461 1460 1461 1461 1461 1460 1459 1457
1446 1445 1445 1444 1444 1443 1443 1442 1442 1441 1441 1441 1441 1441 1441 1442 1443 1444 1445 1446 1446 1447 1448 1448 1449 1449 1450 1451 1451 1452 1453 1454 1454 1455 1454 1454 1454 1454 1455 1455 1454 1453 1451
1443 1442 1441 1441 1440 1440 1439 1438 1438 1437 1437 1436 1436 1437 1437 1437 1438 1439 1440 1440 1440 1441 1441 1442 1442 1443 1443 1444 1444 1445 1445 1446 1447 1448 1448 1448 1448 1448 1449 1449 1447 1446 1445
1440 1439 1439 1438 1437 1436 1435 1434 1434 1433 1432 1432 1432 1432 1432 1432 1433 1433 1434 1434 1434 1434 1435 1436 1436 1437 1437 1438 1438 1438 1438 1438 1440 1441 1441 1441 1442 1442 1442 1442 1441 1440 1438
1437 1437 1436 1435 1434 1433 1432 1431 1431 1430 1429 1429 1428 1428 1428 1428 1428 1428 1429 1429 1428 1429 1429 1430 1430 1431 1431 1431 1432 1431 1431 1432 1433 1433 1434 1434 1434 1435 1435 1435 1434 1434 1432
1435 1434 1433 1432 1432 1431 1429 1429 1428 1427 1426 1425 1425 1424 1424 1424 1424 1424 1424 1424 1424 1424 1424 1424 1424 1425 1426 1426 1426 1426 1425 1426 1426 1426 1426 1426 1427 1428 1427 1428 1428 1428 1427
1432 1431 1430 1429 1428 1427 1427 1426 1425 1424 1423 1422 1421 1421 1421 1420 1420 1419 1419 1420 1420 1419 1419 1419 1419 1420 1420 1421 1420 1420 1420 1421 1420 1420 1420 1420 1420 1421 1421 1421 1421 1421 1421
1429 1428 1427 1426 1425 1425 1424 1423 1422 1421 1420 1419 1418 1417 1417 1417 1416 1416 1416 1416 1415 1415 1415 1415 1415 1415 1415 1415 1415 1415 1415 1415 1415 1414 1414 1414 1414 1415 1415 1415 1415 1415 1414
1426 1425 1424 1423 1422 1422 1421 1420 1419 1418 1417 1416 1415 1415 1414 1414 1413 1413 1412 1412 1411 1411 1411 1410 1411 1411 1410 1410 1410 1410 1410 1410 1409 1409 1409 1409 1409 1409 1409 1409 1409 1408 1407
1424 1423 1422 1421 1420 1419 1418 1418 1416 1416 1416 1415 1413 1413 1412 1411 1411 1411 1410 1409 1408 1408 1407 1406 1406 1406 1405 1405 1405 1405 1405 1405 1405 1404 1404 1404 1404 1404 1403 1403 1403 1402 1401
1421 1420 1419 1418 1418 1416 1415 1415 1414 1414 1413 1412 1412 1411 1410 1410 1409 1408 1407 1406 1405 1404 1404 1402 1402 1401 1401 1400 1400 1399 1399 1399 1400 1399 1399 1399 1398 1398 1398 1397 1397 1396 1395
1419 1418 1417 1416 1415 1414 1413 1412 1411 1411 1410 1409 1408 1408 1407 1406 1405 1404 1403 1402 1401 1401 1400 1399 1398 1398 1397 1396 1396 1395 1395 1395 1395 1395 1394 1394 1393 1393 1392 1392 1391 1390 1389
1416 1415 1414 1413 1413 1412 1411 1410 1409 1407 1406 1405 1405 1404 1404 1403 1402 1401 1400 1399 1398 1397 1396 1395 1395 1394 1393 1393 1392 1392 1391 1391 1390 1390 1389 1389 1388 1388 1387 1386 1385 1385 1384
1414 1413 1412 1411 1410 1409 1408 1407 1406 1405 1404 1403 1402 1401 1401 1400 1399 1398 1397 1396 1394 1393 1393 1392 1392 1391 1390 1389 1388 1387 1387 1386 1386 1385 1384 1384 1383 1383 1382 1381 1380 1380 1379
1411 1410 1409 1408 1407 1406 1405 1404 1403 1402 1401 1400 1399 1398 1397 1396 1395 1394 1393 1392 1391 1390 1390 1389 1388 1387 1386 1385 1384 1383 1382 1381 1381 1380 1379 1379 1378 1378 1377 1376 1375 1374 1373
1409 1408 1407 1406 1404 1403 1402 1401 1401 1400 1399 1398 1397 1396 1395 1393 1392 1391 1390 1389 1388 1387 1386 1385 1384 1384 1382 1381 1380 1379 1378 1377 1376 1375 1374 1374 1373 1372 1372 1371 1370 1369 1368
1407 1406 1404 1403 1402 1401 1400 1399 1398 1397 1396 1395 1394 1393 1392 1391 1389 1388 1387 1386 1385 1384 1383 1382 1381 1380 1379 1377 1376 1375 1374 1372 1372 1371 1370 1369 1368 1368 1367 1366 1365 1364 1363
1405 1404 1402 1401 1400 1399 1398 1397 1396 1395 1394 1393 1392 1390 1389 1388 1387 1386 1385 1384 1382 1381 1380 1379 1378 1376 1375 1374 1373 1372 1370 1369 1368 1367 1365 1364 1363 1362 1362 1361 1360 1359 1359
1404 1402 1401 1399 1398 1397 1396 1394 1394 1393 1391 1390 1389 1388 1387 1385 1384 1383 1382 1381 1379 1378 1377 1376 1374 1373 1372 1371 1369 1368 1367 1366 1364 1363 1361 1360 1359 1358 1357 1356 1356 1355 1354
1402 1401 1399 1398 1396 1395 1394 1392 1391 1390 1389 1388 1387 1385 1384 1383 1382 1380 1379 1378 1376 1375 1374 1372 1371 1370 1368 1367 1365 1364 1363 1362 1360 1359 1358 1356 1355 1354 1352 1352 1351 1350 1350
1401 1399 1398 1396 1395 1393 1392 1390 1389 1388 1387 1385 1384 1383 1382 1380 1379 1377 1376 1375 1373 1372 1370 1369 1368 1366 1365 1363 1362 1360 1359 1358 1357 1355 1354 1352 1351 1349 1348 1347 1347 1346 1345